| time (UTC) | temp C | wind direction | speed KPH | gust KPH | rain 1hr cm | rain 24hr cm | rain mn cm | humidity % | barometer mb |
| 20260509070104 | 8 | 316 | 0.0 | 0.0 | 0.00 | 0.00 | 0.00 | 59 | 1019.0 |
| 20260509065604 | 9 | 316 | 0.0 | 0.0 | 0.00 | 0.00 | 0.00 | 58 | 1018.8 |
| 20260509065104 | 9 | 316 | 0.0 | 0.0 | 0.00 | 0.00 | 0.00 | 58 | 1018.8 |
| 20260509064604 | 9 | 316 | 0.0 | 0.0 | 0.00 | 0.00 | 0.00 | 58 | 1018.8 |
| 20260509064105 | 9 | 316 | 0.0 | 0.0 | 0.00 | 0.00 | 0.00 | 58 | 1018.8 |
| 20260509063604 | 9 | 316 | 0.0 | 0.0 | 0.00 | 0.00 | 0.00 | 59 | 1018.8 |
| 20260509063104 | 10 | 316 | 0.0 | 0.0 | 0.00 | 0.00 | 0.00 | 58 | 1018.8 |
| 20260509062605 | 10 | 316 | 0.0 | 0.0 | 0.00 | 0.00 | 0.00 | 58 | 1018.8 |
| 20260509062104 | 10 | 316 | 0.0 | 0.0 | 0.00 | 0.00 | 0.00 | 58 | 1018.8 |
| 20260509061604 | 10 | 316 | 0.0 | 0.0 | 0.00 | 0.00 | 0.00 | 58 | 1018.7 |
| 20260509061104 | 10 | 316 | 0.0 | 0.0 | 0.00 | 0.00 | 0.00 | 57 | 1018.6 |
| 20260509060604 | 10 | 316 | 0.0 | 0.0 | 0.00 | 0.00 | 0.00 | 56 | 1018.5 |
| 20260509060105 | 11 | 316 | 0.0 | 0.0 | 0.00 | 0.00 | 0.00 | 56 | 1018.4 |
| 20260509055604 | 11 | 316 | 0.0 | 0.0 | 0.00 | 0.00 | 0.00 | 55 | 1018.4 |
| 20260509055104 | 11 | 316 | 0.0 | 0.0 | 0.00 | 0.00 | 0.00 | 55 | 1018.3 |
| 20260509054604 | 11 | 316 | 0.0 | 0.0 | 0.00 | 0.00 | 0.00 | 54 | 1018.4 |
| 20260509054104 | 11 | 316 | 0.0 | 0.0 | 0.00 | 0.00 | 0.00 | 53 | 1018.4 |
| 20260509053604 | 11 | 316 | 0.0 | 0.0 | 0.00 | 0.00 | 0.00 | 53 | 1018.4 |
| 20260509053105 | 11 | 316 | 0.0 | 0.0 | 0.00 | 0.00 | 0.00 | 53 | 1018.4 |
| 20260509052605 | 11 | 316 | 0.0 | 0.0 | 0.00 | 0.00 | 0.00 | 53 | 1018.5 |
| 20260509052104 | 12 | 316 | 0.0 | 0.0 | 0.00 | 0.00 | 0.00 | 52 | 1018.5 |
| 20260509051604 | 12 | 316 | 0.0 | 0.0 | 0.00 | 0.00 | 0.00 | 51 | 1018.5 |
| 20260509051104 | 12 | 316 | 0.0 | 0.0 | 0.00 | 0.00 | 0.00 | 51 | 1018.4 |
| 20260509050604 | 12 | 316 | 0.0 | 0.0 | 0.00 | 0.00 | 0.00 | 50 | 1018.4 |
| 20260509050104 | 12 | 316 | 0.0 | 0.0 | 0.00 | 0.00 | 0.00 | 50 | 1018.3 |
| 20260509045604 | 12 | 316 | 0.0 | 0.0 | 0.00 | 0.00 | 0.00 | 49 | 1018.1 |
| 20260509045104 | 13 | 316 | 0.0 | 0.0 | 0.00 | 0.00 | 0.00 | 48 | 1018.0 |
| 20260509044604 | 13 | 316 | 0.0 | 0.0 | 0.00 | 0.00 | 0.00 | 48 | 1018.0 |
| 20260509043604 | 13 | 316 | 0.0 | 0.0 | 0.00 | 0.00 | 0.00 | 47 | 1017.9 |
| 20260509043105 | 13 | 316 | 0.0 | 0.0 | 0.00 | 0.00 | 0.00 | 47 | 1017.8 |
| 20260509042104 | 14 | 316 | 0.0 | 0.0 | 0.00 | 0.00 | 0.00 | 45 | 1017.7 |
| 20260509041604 | 14 | 316 | 0.0 | 0.0 | 0.00 | 0.00 | 0.00 | 45 | 1017.7 |
| 20260509041104 | 14 | 316 | 0.0 | 0.0 | 0.00 | 0.00 | 0.00 | 45 | 1017.6 |
| 20260509040604 | 14 | 316 | 0.0 | 0.0 | 0.00 | 0.00 | 0.00 | 44 | 1017.5 |
| 20260509040104 | 14 | 316 | 0.0 | 0.0 | 0.00 | 0.00 | 0.00 | 44 | 1017.5 |
| 20260509035104 | 15 | 316 | 0.0 | 0.0 | 0.00 | 0.00 | 0.00 | 43 | 1017.4 |
| 20260509033604 | 15 | 316 | 0.0 | 3.2 | 0.00 | 0.00 | 0.00 | 42 | 1017.5 |
| 20260509033104 | 15 | 316 | 0.0 | 1.6 | 0.00 | 0.00 | 0.00 | 41 | 1017.5 |
| 20260509032604 | 15 | 316 | 0.0 | 1.6 | 0.00 | 0.00 | 0.00 | 41 | 1017.4 |
| 20260509031604 | 16 | 312 | 0.0 | 4.8 | 0.00 | 0.00 | 0.00 | 40 | 1017.2 |
| 20260509031104 | 16 | 244 | 0.0 | 4.8 | 0.00 | 0.00 | 0.00 | 39 | 1017.2 |
| 20260509030604 | 16 | 282 | 0.0 | 1.6 | 0.00 | 0.00 | 0.00 | 39 | 1017.2 |
| 20260509030104 | 16 | 314 | 0.0 | 4.8 | 0.00 | 0.00 | 0.00 | 38 | 1017.1 |
| 20260509025604 | 16 | 298 | 1.6 | 4.8 | 0.00 | 0.00 | 0.00 | 37 | 1017.0 |
| 20260509025104 | 16 | 328 | 0.0 | 9.7 | 0.00 | 0.00 | 0.00 | 37 | 1016.9 |
| 20260509024104 | 17 | 334 | 3.2 | 16.1 | 0.00 | 0.00 | 0.00 | 35 | 1016.6 |
| 20260509023604 | 17 | 323 | 0.0 | 9.7 | 0.00 | 0.00 | 0.00 | 35 | 1016.6 |
| 20260509022604 | 18 | 293 | 0.0 | 0.0 | 0.00 | 0.00 | 0.00 | 32 | 1016.6 |
| 20260509022104 | 18 | 323 | 1.6 | 8.0 | 0.00 | 0.00 | 0.00 | 31 | 1016.6 |
| 20260509021104 | 18 | 244 | 0.0 | 4.8 | 0.00 | 0.00 | 0.00 | 30 | 1016.3 |
| 20260509020604 | 19 | 300 | 0.0 | 1.6 | 0.00 | 0.00 | 0.00 | 30 | 1016.3 |
| 20260509020104 | 19 | 244 | 0.0 | 3.2 | 0.00 | 0.00 | 0.00 | 30 | 1016.3 |
| 20260509015605 | 20 | 331 | 1.6 | 4.8 | 0.00 | 0.00 | 0.00 | 29 | 1016.1 |
| 20260509015104 | 20 | 284 | 0.0 | 3.2 | 0.00 | 0.00 | 0.00 | 27 | 1016.0 |
| 20260509014604 | 20 | 280 | 0.0 | 4.8 | 0.00 | 0.00 | 0.00 | 25 | 1015.9 |
| 20260509014104 | 20 | 334 | 1.6 | 8.0 | 0.00 | 0.00 | 0.00 | 25 | 1015.9 |
| 20260509013104 | 20 | 297 | 1.6 | 4.8 | 0.00 | 0.00 | 0.00 | 24 | 1015.6 |
| 20260509012605 | 20 | 232 | 0.0 | 4.8 | 0.00 | 0.00 | 0.00 | 24 | 1015.5 |
| 20260509011604 | 21 | 327 | 0.0 | 4.8 | 0.00 | 0.00 | 0.00 | 26 | 1015.3 |
| 20260509011104 | 21 | 282 | 0.0 | 4.8 | 0.00 | 0.00 | 0.00 | 26 | 1015.3 |
| 20260509010605 | 21 | 291 | 1.6 | 9.7 | 0.00 | 0.00 | 0.00 | 25 | 1015.5 |
| 20260509010105 | 21 | 264 | 0.0 | 1.6 | 0.00 | 0.00 | 0.00 | 24 | 1015.4 |
| 20260509004605 | 21 | 326 | 1.6 | 4.8 | 0.00 | 0.00 | 0.00 | 25 | 1015.4 |
| 20260509004104 | 22 | 236 | 0.0 | 12.9 | 0.00 | 0.00 | 0.00 | 24 | 1015.6 |
| 20260509003604 | 22 | 210 | 0.0 | 9.7 | 0.00 | 0.00 | 0.00 | 24 | 1015.5 |
| 20260509003104 | 22 | 218 | 1.6 | 11.3 | 0.00 | 0.00 | 0.00 | 23 | 1015.5 |
| 20260509002604 | 22 | 270 | 0.0 | 8.0 | 0.00 | 0.00 | 0.00 | 23 | 1015.5 |
| 20260509002104 | 22 | 233 | 1.6 | 4.8 | 0.00 | 0.00 | 0.00 | 23 | 1015.4 |
| 20260509001604 | 22 | 350 | 0.0 | 4.8 | 0.00 | 0.00 | 0.00 | 23 | 1015.3 |
| 20260509001105 | 22 | 262 | 1.6 | 9.7 | 0.00 | 0.00 | 0.00 | 23 | 1015.4 |
| 20260509000604 | 23 | 252 | 0.0 | 3.2 | 0.00 | 0.00 | 0.00 | 23 | 1015.4 |
| 20260508235604 | 23 | 249 | 0.0 | 14.5 | 0.00 | 0.00 | 0.00 | 24 | 1015.3 |
| 20260508235104 | 23 | 255 | 1.6 | 8.0 | 0.00 | 0.00 | 0.00 | 24 | 1015.4 |
| 20260508233604 | 23 | 255 | 1.6 | 11.3 | 0.00 | 0.00 | 0.00 | 23 | 1015.4 |
| 20260508233104 | 23 | 285 | 0.0 | 3.2 | 0.00 | 0.00 | 0.00 | 23 | 1015.5 |
| 20260508232104 | 23 | 308 | 0.0 | 12.9 | 0.00 | 0.00 | 0.00 | 22 | 1015.5 |
| 20260508231104 | 23 | 238 | 1.6 | 11.3 | 0.00 | 0.00 | 0.00 | 21 | 1015.5 |
| 20260508230604 | 23 | 244 | 3.2 | 14.5 | 0.00 | 0.00 | 0.00 | 21 | 1015.5 |
| 20260508230104 | 23 | 245 | 1.6 | 11.3 | 0.00 | 0.00 | 0.00 | 22 | 1015.4 |
| 20260508225604 | 23 | 229 | 0.0 | 9.7 | 0.00 | 0.00 | 0.00 | 22 | 1015.3 |
| 20260508225104 | 23 | 244 | 1.6 | 4.8 | 0.00 | 0.00 | 0.00 | 22 | 1015.2 |
| 20260508224604 | 23 | 219 | 1.6 | 8.0 | 0.00 | 0.00 | 0.00 | 21 | 1015.4 |
| 20260508224104 | 23 | 229 | 1.6 | 4.8 | 0.00 | 0.00 | 0.00 | 21 | 1015.2 |
| 20260508223604 | 23 | 249 | 1.6 | 14.5 | 0.00 | 0.00 | 0.00 | 21 | 1015.2 |
| 20260508223104 | 24 | 331 | 3.2 | 20.9 | 0.00 | 0.00 | 0.00 | 21 | 1015.2 |
| 20260508222604 | 24 | 285 | 1.6 | 4.8 | 0.00 | 0.00 | 0.00 | 22 | 1015.3 |
| 20260508221104 | 23 | 296 | 3.2 | 8.0 | 0.00 | 0.00 | 0.00 | 22 | 1015.5 |
| 20260508220604 | 24 | 242 | 1.6 | 12.9 | 0.00 | 0.00 | 0.00 | 21 | 1015.5 |
| 20260508220105 | 24 | 248 | 1.6 | 4.8 | 0.00 | 0.00 | 0.00 | 21 | 1015.4 |
| 20260508215605 | 24 | 188 | 1.6 | 9.7 | 0.00 | 0.00 | 0.00 | 22 | 1015.5 |
| 20260508215104 | 23 | 294 | 0.0 | 8.0 | 0.00 | 0.00 | 0.00 | 21 | 1015.4 |
| 20260508214604 | 23 | 320 | 1.6 | 9.7 | 0.00 | 0.00 | 0.00 | 21 | 1015.5 |
| 20260508214104 | 24 | 313 | 0.0 | 4.8 | 0.00 | 0.00 | 0.00 | 21 | 1015.6 |
| 20260508213605 | 23 | 230 | 1.6 | 8.0 | 0.00 | 0.00 | 0.00 | 22 | 1015.5 |
| 20260508212605 | 23 | 274 | 0.0 | 3.2 | 0.00 | 0.00 | 0.00 | 22 | 1015.6 |
| 20260508212104 | 23 | 288 | 1.6 | 16.1 | 0.00 | 0.00 | 0.00 | 22 | 1015.6 |
| 20260508211604 | 23 | 216 | 1.6 | 4.8 | 0.00 | 0.00 | 0.00 | 22 | 1015.6 |
| 20260508211104 | 23 | 331 | 1.6 | 4.8 | 0.00 | 0.00 | 0.00 | 20 | 1015.7 |
| 20260508210604 | 23 | 278 | 0.0 | 4.8 | 0.00 | 0.00 | 0.00 | 21 | 1015.5 |
| 20260508210105 | 23 | 333 | 3.2 | 14.5 | 0.00 | 0.00 | 0.00 | 19 | 1015.5 |
| 20260508205604 | 22 | 247 | 0.0 | 4.8 | 0.00 | 0.00 | 0.00 | 20 | 1015.5 |
| 20260508205104 | 22 | 333 | 1.6 | 8.0 | 0.00 | 0.00 | 0.00 | 20 | 1015.5 |
| 20260508204604 | 23 | 310 | 1.6 | 8.0 | 0.00 | 0.00 | 0.00 | 21 | 1015.4 |
| 20260508204105 | 22 | 332 | 1.6 | 9.7 | 0.00 | 0.00 | 0.00 | 20 | 1015.3 |
| 20260508203604 | 23 | 297 | 0.0 | 16.1 | 0.00 | 0.00 | 0.00 | 20 | 1015.2 |
| 20260508203104 | 22 | 327 | 3.2 | 12.9 | 0.00 | 0.00 | 0.00 | 21 | 1015.3 |
| 20260508202604 | 23 | 49 | 0.0 | 3.2 | 0.00 | 0.00 | 0.00 | 19 | 1015.3 |
| 20260508202104 | 22 | 137 | 0.0 | 4.8 | 0.00 | 0.00 | 0.00 | 19 | 1015.3 |
| 20260508201604 | 22 | 319 | 1.6 | 8.0 | 0.00 | 0.00 | 0.00 | 19 | 1015.5 |
| 20260508200604 | 22 | 331 | 1.6 | 16.1 | 0.00 | 0.00 | 0.00 | 21 | 1015.5 |
| 20260508200104 | 22 | 334 | 3.2 | 19.3 | 0.00 | 0.00 | 0.00 | 20 | 1015.4 |
| 20260508195604 | 22 | 289 | 1.6 | 12.9 | 0.00 | 0.00 | 0.00 | 21 | 1015.3 |
| 20260508195104 | 22 | 175 | 1.6 | 12.9 | 0.00 | 0.00 | 0.00 | 20 | 1015.1 |
| 20260508194605 | 22 | 281 | 0.0 | 8.0 | 0.00 | 0.00 | 0.00 | 19 | 1015.3 |
| 20260508194104 | 22 | 208 | 0.0 | 19.3 | 0.00 | 0.00 | 0.00 | 20 | 1015.4 |
| 20260508193604 | 22 | 243 | 1.6 | 12.9 | 0.00 | 0.00 | 0.00 | 19 | 1015.4 |
| 20260508193104 | 21 | 236 | 1.6 | 4.8 | 0.00 | 0.00 | 0.00 | 18 | 1015.4 |
| 20260508192604 | 21 | 256 | 0.0 | 8.0 | 0.00 | 0.00 | 0.00 | 19 | 1015.4 |
| 20260508192104 | 21 | 102 | 1.6 | 4.8 | 0.00 | 0.00 | 0.00 | 22 | 1015.3 |
| 20260508191605 | 21 | 318 | 0.0 | 4.8 | 0.00 | 0.00 | 0.00 | 23 | 1015.4 |
| 20260508191104 | 21 | 157 | 1.6 | 4.8 | 0.00 | 0.00 | 0.00 | 24 | 1015.4 |
| 20260508190604 | 21 | 166 | 0.0 | 3.2 | 0.00 | 0.00 | 0.00 | 24 | 1015.5 |
| 20260508190104 | 21 | 231 | 1.6 | 4.8 | 0.00 | 0.00 | 0.00 | 22 | 1015.5 |
| 20260508185604 | 20 | 142 | 1.6 | 4.8 | 0.00 | 0.00 | 0.00 | 21 | 1015.5 |
| 20260508185104 | 20 | 147 | 0.0 | 4.8 | 0.00 | 0.00 | 0.00 | 21 | 1015.6 |
| 20260508184604 | 20 | 177 | 0.0 | 1.6 | 0.00 | 0.00 | 0.00 | 21 | 1015.7 |
| 20260508184104 | 19 | 151 | 0.0 | 4.8 | 0.00 | 0.00 | 0.00 | 22 | 1015.7 |
| 20260508183605 | 18 | 170 | 0.0 | 9.7 | 0.00 | 0.00 | 0.00 | 24 | 1015.6 |
| 20260508183104 | 18 | 311 | 0.0 | 9.7 | 0.00 | 0.00 | 0.00 | 25 | 1015.6 |
| 20260508182604 | 17 | 308 | 0.0 | 4.8 | 0.00 | 0.00 | 0.00 | 25 | 1015.7 |
| 20260508182104 | 17 | 239 | 1.6 | 8.0 | 0.00 | 0.00 | 0.00 | 24 | 1015.6 |
| 20260508181604 | 17 | 214 | 0.0 | 12.9 | 0.00 | 0.00 | 0.00 | 25 | 1015.5 |
| 20260508181104 | 17 | 262 | 0.0 | 4.8 | 0.00 | 0.00 | 0.00 | 25 | 1015.4 |
| 20260508175604 | 17 | 191 | 0.0 | 4.8 | 0.00 | 0.00 | 0.00 | 28 | 1015.3 |
| 20260508174104 | 17 | 341 | 0.0 | 4.8 | 0.00 | 0.00 | 0.00 | 33 | 1015.4 |
| 20260508173604 | 17 | 252 | 0.0 | 4.8 | 0.00 | 0.00 | 0.00 | 32 | 1015.4 |
| 20260508173104 | 17 | 245 | 1.6 | 4.8 | 0.00 | 0.00 | 0.00 | 32 | 1015.3 |
| 20260508172104 | 17 | 269 | 1.6 | 9.7 | 0.00 | 0.00 | 0.00 | 29 | 1015.4 |
| 20260508171604 | 17 | 250 | 1.6 | 8.0 | 0.00 | 0.00 | 0.00 | 29 | 1015.4 |
| 20260508171104 | 17 | 270 | 0.0 | 4.8 | 0.00 | 0.00 | 0.00 | 29 | 1015.5 |
| 20260508170604 | 17 | 262 | 1.6 | 4.8 | 0.00 | 0.00 | 0.00 | 31 | 1015.3 |
| 20260508165605 | 16 | 144 | 0.0 | 8.0 | 0.00 | 0.00 | 0.00 | 36 | 1015.3 |
| 20260508165104 | 16 | 209 | 0.0 | 1.6 | 0.00 | 0.00 | 0.00 | 39 | 1015.3 |
| 20260508164104 | 16 | 180 | 1.6 | 4.8 | 0.00 | 0.00 | 0.00 | 38 | 1015.3 |
| 20260508163604 | 16 | 219 | 0.0 | 4.8 | 0.00 | 0.00 | 0.00 | 37 | 1015.3 |
| 20260508163104 | 16 | 163 | 0.0 | 3.2 | 0.00 | 0.00 | 0.00 | 38 | 1015.4 |
| 20260508162604 | 16 | 221 | 1.6 | 11.3 | 0.00 | 0.00 | 0.00 | 37 | 1015.4 |
| 20260508161604 | 16 | 200 | 0.0 | 11.3 | 0.00 | 0.00 | 0.00 | 37 | 1015.2 |
| 20260508161104 | 16 | 209 | 1.6 | 9.7 | 0.00 | 0.00 | 0.00 | 35 | 1015.2 |
| 20260508160604 | 15 | 171 | 0.0 | 4.8 | 0.00 | 0.00 | 0.00 | 38 | 1015.0 |
| 20260508160105 | 15 | 199 | 1.6 | 9.7 | 0.00 | 0.00 | 0.00 | 40 | 1015.0 |
| 20260508155604 | 14 | 203 | 1.6 | 8.0 | 0.00 | 0.00 | 0.00 | 40 | 1014.9 |
| 20260508154603 | 13 | 174 | 1.6 | 4.8 | 0.00 | 0.00 | 0.00 | 44 | 1014.8 |
| 20260508154103 | 13 | 149 | 1.6 | 8.0 | 0.00 | 0.00 | 0.00 | 45 | 1014.8 |
| 20260508153603 | 13 | 159 | 0.0 | 4.8 | 0.00 | 0.00 | 0.00 | 45 | 1014.8 |
| 20260508153103 | 13 | 158 | 1.6 | 4.8 | 0.00 | 0.00 | 0.00 | 47 | 1014.8 |
| 20260508152603 | 12 | 215 | 0.0 | 8.0 | 0.00 | 0.00 | 0.00 | 48 | 1014.8 |
| 20260508152102 | 12 | 211 | 1.6 | 12.9 | 0.00 | 0.00 | 0.00 | 49 | 1014.8 |
| 20260508151603 | 11 | 194 | 0.0 | 3.2 | 0.00 | 0.00 | 0.00 | 50 | 1014.8 |
| 20260508151103 | 11 | 192 | 0.0 | 4.8 | 0.00 | 0.00 | 0.00 | 50 | 1014.8 |
| 20260508150603 | 11 | 227 | 0.0 | 3.2 | 0.00 | 0.00 | 0.00 | 50 | 1014.7 |
| 20260508145603 | 11 | 178 | 0.0 | 3.2 | 0.00 | 0.00 | 0.00 | 51 | 1014.6 |
| 20260508145103 | 11 | 226 | 0.0 | 4.8 | 0.00 | 0.00 | 0.00 | 51 | 1014.5 |
| 20260508144603 | 11 | 215 | 0.0 | 4.8 | 0.00 | 0.00 | 0.00 | 51 | 1014.4 |
| 20260508144103 | 11 | 222 | 1.6 | 4.8 | 0.00 | 0.00 | 0.00 | 51 | 1014.4 |
| 20260508143604 | 11 | 218 | 0.0 | 1.6 | 0.00 | 0.00 | 0.00 | 52 | 1014.3 |
| 20260508143103 | 10 | 252 | 0.0 | 4.8 | 0.00 | 0.00 | 0.00 | 53 | 1014.3 |
| 20260508142603 | 10 | 183 | 0.0 | 1.6 | 0.00 | 0.00 | 0.00 | 54 | 1014.3 |
| 20260508142103 | 10 | 172 | 0.0 | 4.8 | 0.00 | 0.00 | 0.00 | 55 | 1014.3 |
| 20260508141603 | 10 | 158 | 0.0 | 4.8 | 0.00 | 0.00 | 0.00 | 55 | 1014.3 |
| 20260508141103 | 10 | 137 | 0.0 | 9.7 | 0.00 | 0.00 | 0.00 | 55 | 1014.3 |
| 20260508140603 | 10 | 238 | 0.0 | 3.2 | 0.00 | 0.00 | 0.00 | 55 | 1014.3 |
| 20260508140103 | 10 | 193 | 0.0 | 1.6 | 0.00 | 0.00 | 0.00 | 55 | 1014.4 |
| 20260508135603 | 10 | 179 | 0.0 | 0.0 | 0.00 | 0.00 | 0.00 | 55 | 1014.3 |
| 20260508135103 | 10 | 180 | 0.0 | 1.6 | 0.00 | 0.00 | 0.00 | 54 | 1014.4 |
| 20260508134603 | 10 | 220 | 0.0 | 4.8 | 0.00 | 0.00 | 0.00 | 54 | 1014.2 |
| 20260508134103 | 10 | 211 | 0.0 | 3.2 | 0.00 | 0.00 | 0.00 | 54 | 1014.4 |
| 20260508133603 | 9 | 217 | 0.0 | 1.6 | 0.00 | 0.00 | 0.00 | 55 | 1014.4 |
| 20260508133103 | 9 | 221 | 0.0 | 3.2 | 0.00 | 0.00 | 0.00 | 55 | 1014.2 |
| 20260508132603 | 9 | 234 | 0.0 | 1.6 | 0.00 | 0.00 | 0.00 | 56 | 1014.2 |
| 20260508132103 | 9 | 255 | 0.0 | 4.8 | 0.00 | 0.00 | 0.00 | 56 | 1014.1 |
| 20260508131603 | 9 | 247 | 0.0 | 4.8 | 0.00 | 0.00 | 0.00 | 57 | 1014.2 |
| 20260508131103 | 9 | 224 | 1.6 | 12.9 | 0.00 | 0.00 | 0.00 | 57 | 1014.1 |
| 20260508130603 | 9 | 210 | 0.0 | 3.2 | 0.00 | 0.00 | 0.00 | 57 | 1014.0 |
| 20260508125604 | 9 | 139 | 0.0 | 3.2 | 0.00 | 0.00 | 0.00 | 58 | 1013.9 |
| 20260508125103 | 9 | 207 | 0.0 | 3.2 | 0.00 | 0.00 | 0.00 | 57 | 1013.8 |
| 20260508124603 | 9 | 211 | 0.0 | 1.6 | 0.00 | 0.00 | 0.00 | 57 | 1013.6 |
| 20260508124103 | 9 | 203 | 0.0 | 4.8 | 0.00 | 0.00 | 0.00 | 56 | 1013.6 |
| 20260508123603 | 9 | 183 | 0.0 | 4.8 | 0.00 | 0.00 | 0.00 | 56 | 1013.6 |
| 20260508122603 | 10 | 188 | 0.0 | 1.6 | 0.00 | 0.00 | 0.00 | 56 | 1013.6 |
| 20260508122103 | 10 | 206 | 0.0 | 4.8 | 0.00 | 0.00 | 0.00 | 55 | 1013.7 |
| 20260508121604 | 10 | 206 | 0.0 | 4.8 | 0.00 | 0.00 | 0.00 | 55 | 1013.7 |
| 20260508120603 | 10 | 180 | 0.0 | 3.2 | 0.00 | 0.00 | 0.00 | 54 | 1013.7 |
| 20260508120104 | 10 | 212 | 0.0 | 4.8 | 0.00 | 0.00 | 0.00 | 54 | 1013.8 |
| 20260508115603 | 10 | 199 | 0.0 | 0.0 | 0.00 | 0.00 | 0.00 | 54 | 1013.8 |
| 20260508115104 | 10 | 215 | 0.0 | 3.2 | 0.00 | 0.00 | 0.00 | 53 | 1013.8 |
| 20260508114103 | 10 | 211 | 0.0 | 3.2 | 0.00 | 0.00 | 0.00 | 52 | 1013.6 |
| 20260508113103 | 10 | 198 | 0.0 | 1.6 | 0.00 | 0.00 | 0.00 | 50 | 1013.5 |
| 20260508112604 | 10 | 86 | 0.0 | 3.2 | 0.00 | 0.00 | 0.00 | 50 | 1013.6 |
| 20260508112104 | 10 | 243 | 0.0 | 4.8 | 0.00 | 0.00 | 0.00 | 49 | 1013.6 |
| 20260508111603 | 10 | 126 | 0.0 | 4.8 | 0.00 | 0.00 | 0.00 | 50 | 1013.6 |
| 20260508111104 | 10 | 219 | 0.0 | 9.7 | 0.00 | 0.00 | 0.00 | 50 | 1013.6 |
| 20260508110603 | 10 | 201 | 0.0 | 9.7 | 0.00 | 0.00 | 0.00 | 49 | 1013.6 |
| 20260508110104 | 11 | 257 | 1.6 | 4.8 | 0.00 | 0.00 | 0.00 | 49 | 1013.6 |
| 20260508105103 | 11 | 189 | 0.0 | 1.6 | 0.00 | 0.00 | 0.00 | 48 | 1013.4 |
| 20260508104103 | 11 | 245 | 0.0 | 1.6 | 0.00 | 0.00 | 0.00 | 48 | 1013.4 |
| 20260508103604 | 11 | 35 | 0.0 | 4.8 | 0.00 | 0.00 | 0.00 | 47 | 1013.2 |
| 20260508103103 | 11 | 104 | 0.0 | 3.2 | 0.00 | 0.00 | 0.00 | 47 | 1013.3 |
| 20260508102603 | 11 | 185 | 0.0 | 0.0 | 0.00 | 0.00 | 0.00 | 46 | 1013.3 |
| 20260508101104 | 11 | 219 | 0.0 | 4.8 | 0.00 | 0.00 | 0.00 | 44 | 1013.3 |
| 20260508100603 | 12 | 174 | 0.0 | 3.2 | 0.00 | 0.00 | 0.00 | 43 | 1013.4 |
| 20260508100103 | 12 | 174 | 0.0 | 4.8 | 0.00 | 0.00 | 0.00 | 43 | 1013.4 |
| 20260508095105 | 11 | 202 | 0.0 | 19.3 | 0.00 | 0.00 | 0.00 | 43 | 1013.3 |
| 20260508094603 | 11 | 139 | 1.6 | 4.8 | 0.00 | 0.00 | 0.00 | 43 | 1013.3 |
| 20260508094103 | 11 | 154 | 0.0 | 4.8 | 0.00 | 0.00 | 0.00 | 42 | 1013.2 |
| 20260508093603 | 11 | 234 | 1.6 | 4.8 | 0.00 | 0.00 | 0.00 | 42 | 1013.3 |
| 20260508092604 | 11 | 226 | 0.0 | 0.0 | 0.00 | 0.00 | 0.00 | 41 | 1013.2 |
| 20260508091604 | 11 | 226 | 0.0 | 0.0 | 0.00 | 0.00 | 0.00 | 40 | 1013.3 |
| 20260508091103 | 12 | 225 | 0.0 | 3.2 | 0.00 | 0.00 | 0.00 | 40 | 1013.4 |
| 20260508090603 | 12 | 202 | 0.0 | 1.6 | 0.00 | 0.00 | 0.00 | 39 | 1013.4 |
| 20260508090103 | 12 | 160 | 0.0 | 0.0 | 0.00 | 0.00 | 0.00 | 38 | 1013.4 |
| 20260508085603 | 12 | 160 | 0.0 | 1.6 | 0.00 | 0.00 | 0.00 | 38 | 1013.4 |
| 20260508085103 | 12 | 128 | 0.0 | 3.2 | 0.00 | 0.00 | 0.00 | 37 | 1013.4 |
| 20260508084603 | 12 | 190 | 0.0 | 1.6 | 0.00 | 0.00 | 0.00 | 37 | 1013.4 |
| 20260508084103 | 12 | 223 | 0.0 | 0.0 | 0.00 | 0.00 | 0.00 | 36 | 1013.3 |
| 20260508083603 | 12 | 209 | 0.0 | 3.2 | 0.00 | 0.00 | 0.00 | 36 | 1013.3 |
| 20260508083103 | 13 | 214 | 0.0 | 8.0 | 0.00 | 0.00 | 0.00 | 35 | 1013.2 |
| 20260508082103 | 13 | 191 | 0.0 | 1.6 | 0.00 | 0.00 | 0.00 | 35 | 1013.3 |
| 20260508081603 | 13 | 148 | 0.0 | 3.2 | 0.00 | 0.00 | 0.00 | 35 | 1013.4 |
| 20260508081103 | 13 | 192 | 0.0 | 0.0 | 0.00 | 0.00 | 0.00 | 35 | 1013.3 |
| 20260508080603 | 13 | 191 | 0.0 | 1.6 | 0.00 | 0.00 | 0.00 | 36 | 1013.4 |
| 20260508080104 | 13 | 222 | 1.6 | 4.8 | 0.00 | 0.00 | 0.00 | 35 | 1013.4 |
| 20260508075603 | 13 | 210 | 0.0 | 3.2 | 0.00 | 0.00 | 0.00 | 35 | 1013.3 |
| 20260508075104 | 13 | 180 | 0.0 | 3.2 | 0.00 | 0.00 | 0.00 | 35 | 1013.3 |
| 20260508074603 | 13 | 163 | 0.0 | 0.0 | 0.00 | 0.00 | 0.00 | 35 | 1013.4 |
| 20260508074103 | 13 | 163 | 0.0 | 0.0 | 0.00 | 0.00 | 0.00 | 35 | 1013.4 |
| 20260508073604 | 13 | 153 | 0.0 | 0.0 | 0.00 | 0.00 | 0.00 | 36 | 1013.4 |
| 20260508073103 | 13 | 155 | 0.0 | 3.2 | 0.00 | 0.00 | 0.00 | 35 | 1013.4 |
| 20260508072603 | 13 | 178 | 0.0 | 0.0 | 0.00 | 0.00 | 0.00 | 35 | 1013.2 |
| 20260508072103 | 13 | 186 | 0.0 | 0.0 | 0.00 | 0.00 | 0.00 | 35 | 1013.3 |
| 20260508071603 | 13 | 196 | 0.0 | 3.2 | 0.00 | 0.00 | 0.00 | 35 | 1013.4 |
| 20260508071103 | 13 | 191 | 0.0 | 1.6 | 0.00 | 0.00 | 0.00 | 34 | 1013.3 |
| 20260508070603 | 13 | 170 | 0.0 | 1.6 | 0.00 | 0.00 | 0.00 | 34 | 1013.3 |